Weather History for KCDD - August, 2013

Change the Weather History Date:

Wednesday, August 7, 2013

  Actual Average Record
Temperature  
Mean Temperature 56 °F -  
Max Temperature 68 °F 73 °F 91 °F (2001)
Min Temperature 44 °F 53 °F 44 °F (2012)
Degree Days  
Heating Degree Days 9    
Growing Degree Days 6 (Base 50)    
Moisture  
Dew Point 50 °F    
Average Humidity 74    
Maximum Humidity 100    
Minimum Humidity 49    
Precipitation  
Precipitation 0.00 in - - ()
Sea Level Pressure  
Sea Level Pressure 29.97 in    
Wind  
Wind Speed 3 mph (WNW)    
Max Wind Speed 12 mph    
Max Gust Speed 17 mph    
Visibility 10 miles    
Events      
Averages and records for this station are not official NWS values.
T = Trace of Precipitation, MM = Missing Value Source: NWS Daily Summary

Daily Weather History Graph

Daily Weather History Graph

Search for Another Location

Airport or City:

Trip Planner

Search our weather history database for the weather conditions in past years. The results will help you decide how hot, cold, wet, or windy it might be!

Date:

Astronomy

Aug. 07, 2013 Rise Set
Actual Time 5:53 AM CDT 8:36 PM CDT
Civil Twilight 5:17 AM CDT 9:12 PM CDT
Nautical Twilight 4:32 AM CDT 9:57 PM CDT
Astronomical Twilight 3:38 AM CDT 10:50 PM CDT
Moon 6:51 AM CDT 8:32 PM CDT
Length of Visible Light 15h 54m
Length of Day
14h 43m
New Moon, 1% of the Moon is Illuminated
Aug 7
New Moon
Aug 14
First Quarter
Aug 20
Full
Aug 28
Last Quarter
Sep 5
New

Hourly Weather History & Observations

Time (CDT) Temp. Dew Point Humidity Pressure Visibility Wind Dir Wind Speed Gust Speed Precip Events Conditions
12:12 AM 55.4 °F 53.6 °F 94% 29.83 in 10.0 mi Calm Calm - N/A   Clear
12:32 AM 53.6 °F 53.6 °F 100% 29.84 in 10.0 mi Calm Calm - N/A   Scattered Clouds
12:52 AM 51.8 °F 51.8 °F 100% 29.84 in 3.0 mi Calm Calm - N/A   Scattered Clouds
1:12 AM 51.8 °F 50.0 °F 94% 29.85 in 5.0 mi Calm Calm - N/A   Mostly Cloudy
1:32 AM 51.8 °F 51.8 °F 100% 29.85 in 10.0 mi Calm Calm - N/A   Overcast
8:52 AM 55.4 °F 53.6 °F 94% 29.93 in 10.0 mi West 3.5 mph - N/A   Scattered Clouds
9:12 AM 57.2 °F 57.2 °F 100% 29.93 in 10.0 mi West 5.8 mph - N/A   Scattered Clouds
9:32 AM 60.8 °F 57.2 °F 88% 29.93 in 10.0 mi Calm Calm - N/A   Clear
9:52 AM 60.8 °F 59.0 °F 94% 29.93 in 10.0 mi NW 6.9 mph - N/A   Clear
10:12 AM 60.8 °F 59.0 °F 94% 29.94 in 10.0 mi NNW 6.9 mph - N/A   Clear
10:32 AM 62.6 °F 60.8 °F 94% 29.94 in 10.0 mi WNW 4.6 mph - N/A   Clear
10:52 AM 62.6 °F 59.0 °F 88% 29.95 in 10.0 mi West 6.9 mph - N/A   Clear
11:12 AM 62.6 °F 57.2 °F 82% 29.95 in 10.0 mi NW 10.4 mph - N/A   Clear
11:32 AM 64.4 °F 59.0 °F 83% 29.96 in 10.0 mi NW 6.9 mph - N/A   Clear
11:52 AM 64.4 °F 57.2 °F 77% 29.96 in 10.0 mi NW 11.5 mph 17.3 mph N/A   Clear
12:12 PM 64.4 °F 53.6 °F 68% 29.96 in 10.0 mi WNW 4.6 mph 17.3 mph N/A   Clear
12:32 PM 64.4 °F 55.4 °F 73% 29.97 in 10.0 mi West 8.1 mph - N/A   Clear
12:52 PM 66.2 °F 53.6 °F 64% 29.97 in 10.0 mi NW 9.2 mph 16.1 mph N/A   Scattered Clouds
1:12 PM 66.2 °F 53.6 °F 64% 29.97 in 10.0 mi NW 8.1 mph 17.3 mph N/A   Scattered Clouds
1:32 PM 66.2 °F 53.6 °F 64% 29.97 in 10.0 mi NNW 6.9 mph - N/A   Scattered Clouds
1:52 PM 64.4 °F 51.8 °F 64% 29.98 in 10.0 mi NNW 8.1 mph - N/A   Scattered Clouds
2:12 PM 66.2 °F 48.2 °F 52% 29.98 in 10.0 mi NNW 10.4 mph 16.1 mph N/A   Scattered Clouds
2:32 PM 68.0 °F 48.2 °F 49% 29.98 in 10.0 mi NNW 9.2 mph 17.3 mph N/A   Scattered Clouds
2:52 PM 64.4 °F 48.2 °F 56% 29.98 in 10.0 mi NNW 8.1 mph - N/A   Scattered Clouds
3:12 PM 64.4 °F 48.2 °F 56% 29.98 in 10.0 mi NW 5.8 mph - N/A   Mostly Cloudy
3:32 PM 66.2 °F 46.4 °F 49% 29.98 in 10.0 mi NW 6.9 mph - N/A   Scattered Clouds
3:52 PM 66.2 °F 48.2 °F 52% 29.98 in 10.0 mi NNW 5.8 mph - N/A   Mostly Cloudy
4:12 PM 68.0 °F 48.2 °F 49% 29.97 in 10.0 mi NW 5.8 mph - N/A   Mostly Cloudy
4:32 PM 68.0 °F 48.2 °F 49% 29.98 in 10.0 mi WNW 4.6 mph - N/A   Scattered Clouds
4:53 PM 66.2 °F 48.2 °F 52% 29.98 in 10.0 mi West 4.6 mph - N/A   Mostly Cloudy
5:12 PM 64.4 °F 46.4 °F 52% 29.98 in 10.0 mi West 3.5 mph - N/A   Mostly Cloudy
5:32 PM 64.4 °F 50.0 °F 59% 29.99 in 10.0 mi NW 6.9 mph - N/A   Overcast
5:52 PM 64.4 °F 46.4 °F 52% 29.99 in 10.0 mi West 4.6 mph - N/A   Scattered Clouds
6:12 PM 64.4 °F 46.4 °F 52% 30.00 in 10.0 mi West 3.5 mph - N/A   Scattered Clouds
6:32 PM 66.2 °F 46.4 °F 49% 29.99 in 10.0 mi NW 4.6 mph - N/A   Scattered Clouds
6:52 PM 66.2 °F 48.2 °F 52% 29.99 in 10.0 mi Calm Calm - N/A   Clear
7:12 PM 62.6 °F 46.4 °F 55% 29.99 in 10.0 mi West 4.6 mph - N/A   Scattered Clouds
7:32 PM 62.6 °F 46.4 °F 55% 29.99 in 10.0 mi WSW 3.5 mph - N/A   Scattered Clouds
7:52 PM 60.8 °F 46.4 °F 59% 29.99 in 10.0 mi Calm Calm - N/A   Clear
8:12 PM 55.4 °F 44.6 °F 67% 29.99 in 10.0 mi Calm Calm - N/A   Clear
8:32 PM 51.8 °F 42.8 °F 71% 30.00 in 10.0 mi Calm Calm - N/A   Clear
8:52 PM 48.2 °F 42.8 °F 82% 30.00 in 10.0 mi Calm Calm - N/A   Clear
9:12 PM 46.4 °F 42.8 °F 87% 30.01 in 10.0 mi Calm Calm - N/A   Clear
9:32 PM 46.4 °F 42.8 °F 87% 30.01 in 10.0 mi Calm Calm - N/A   Clear
9:52 PM 46.4 °F 42.8 °F 87% 30.02 in 10.0 mi Calm Calm - N/A   Clear
10:12 PM 44.6 °F 41.0 °F 87% 30.01 in 10.0 mi Calm Calm - N/A   Clear
10:32 PM 44.6 °F 42.8 °F 93% 30.02 in 10.0 mi Calm Calm - N/A   Clear
10:52 PM 44.6 °F 42.8 °F 93% 30.01 in 10.0 mi Calm Calm - N/A   Clear
11:12 PM 44.6 °F 42.8 °F 93% 30.01 in 10.0 mi Calm Calm - N/A   Clear
11:32 PM 44.6 °F 42.8 °F 93% 30.02 in 10.0 mi Calm Calm - N/A   Clear
11:52 PM 44.6 °F 42.8 °F 93% 30.02 in 10.0 mi Calm Calm - N/A   Clear